Wind_Speed
32 32 32 32 32 32 31 31 30 28 26 24 21 18 17 16 14 14 13 13 12 11 11 11 11 11 11 10 8 8 8 9 9 9 9 9 10 11 11 11 11 10 10 10
33 33 34 34 34 33 33 32 31 30 28 25 23 20 18 17 16 15 14 13 13 12 12 12 12 12 11 11 10 9 9 10 10 11 11 11 12 11 12 12 12 12 12 12
36 34 35 36 35 34 33 33 32 30 27 25 24 23 21 19 18 17 16 15 14 13 12 13 13 12 12 12 12 11 11 11 12 12 12 12 12 12 12 13 14 14 14 14
37 36 38 36 35 34 34 33 32 30 27 25 24 23 22 21 20 19 18 17 16 15 14 13 14 14 13 13 13 13 12 13 13 13 12 12 13 13 14 14 14 14 15 15
38 38 38 37 35 34 34 34 32 31 29 27 25 24 23 22 22 20 19 18 18 17 17 15 16 16 16 15 15 15 14 14 14 14 13 13 13 14 14 14 14 15 16 17
38 39 38 36 35 34 34 34 33 32 30 28 27 26 24 24 22 21 20 19 19 19 19 18 18 18 18 17 17 16 16 16 15 15 15 14 14 15 15 15 15 17 18 19
37 38 37 36 35 34 35 34 34 33 32 30 29 28 26 26 25 23 21 21 20 20 20 20 20 20 19 19 18 18 18 17 17 17 17 16 16 17 17 17 18 19 19 20
38 38 37 35 35 35 35 34 34 33 33 32 31 30 28 27 27 25 23 23 22 22 21 21 21 21 21 21 20 20 20 20 19 19 19 19 19 18 19 19 20 20 21 21
40 39 37 36 37 36 36 34 34 33 33 32 32 31 30 28 28 27 25 25 24 24 24 24 23 22 22 23 22 22 22 22 21 21 22 22 21 21 21 21 21 22 22 22
39 38 38 37 37 37 36 35 34 33 33 33 32 32 31 30 28 27 26 26 26 27 27 27 26 25 23 24 24 24 24 23 23 23 23 23 23 23 23 24 24 24 24 23
39 38 37 38 38 38 37 36 35 34 34 34 34 33 33 32 31 30 29 29 28 29 29 29 27 26 25 25 24 24 25 25 25 25 25 25 25 25 25 25 25 25 25 25
39 38 39 39 38 38 38 37 36 35 35 36 35 35 34 33 33 33 32 32 31 30 30 29 28 27 27 27 27 26 26 26 26 26 26 25 26 26 25 25 26 26 27 27
39 39 39 39 39 38 38 37 37 36 36 36 36 37 37 36 35 35 35 34 33 32 32 31 30 28 27 27 28 28 29 28 28 28 27 27 27 26 26 26 27 28 29 29
38 39 39 38 39 38 38 37 37 37 37 36 37 37 36 36 35 34 34 34 34 34 33 31 30 30 29 29 30 30 30 30 29 29 28 27 27 28 28 28 28 29 30 30
38 39 39 38 38 38 38 37 37 37 36 36 36 35 36 35 34 34 34 33 33 33 33 33 32 32 31 31 31 31 31 30 31 30 29 29 29 30 30 30 30 30 31 32
37 38 38 38 37 36 37 37 37 38 37 36 36 36 35 35 34 34 34 33 33 33 33 33 33 32 32 32 31 31 31 32 31 30 30 30 31 32 32 32 31 32 32 33
35 36 36 36 36 36 36 36 37 37 38 37 36 36 35 35 35 34 34 34 34 33 33 33 33 32 31 31 32 32 31 31 31 31 32 32 32 32 32 33 33 33 33 33
33 33 32 33 33 34 35 35 34 35 36 37 37 36 35 35 34 34 34 35 34 34 33 34 33 33 32 31 31 31 31 31 31 32 32 33 32 33 33 33 33 33 33 33
28 29 30 30 31 30 30 30 31 30 32 34 35 36 35 34 34 34 34 34 34 34 34 33 33 34 32 30 30 30 31 31 31 32 32 33 33 33 33 33 32 33 33 33
27 28 28 28 29 28 28 27 28 29 30 31 32 34 35 35 35 34 33 33 32 32 32 32 33 33 33 32 31 31 32 32 32 32 32 33 33 33 33 33 32 33 33 33
25 25 25 26 26 26 26 26 26 27 28 29 30 31 31 32 33 34 33 32 31 31 31 32 32 33 33 33 33 32 33 32 32 32 32 32 32 32 32 32 32 33 33 34
22 22 22 23 23 23 23 23 23 24 25 26 27 28 29 30 30 31 30 30 30 30 30 30 31 31 31 31 32 32 32 31 31 31 31 31 31 32 33 33 32 33 33 33
17 19 20 21 22 22 22 22 22 23 23 24 25 25 24 25 27 28 28 27 27 28 29 29 29 29 28 29 29 29 29 29 30 31 31 32 32 32 32 32 33 33 32 32
16 17 18 19 21 22 21 21 21 21 20 20 21 22 22 21 21 22 23 24 25 26 26 26 26 27 27 27 26 27 28 29 29 30 31 31 32 32 32 32 33 33 32 31
15 16 17 18 18 19 18 18 19 19 19 19 19 20 20 19 19 20 22 23 23 24 25 25 26 26 26 26 26 26 27 28 29 29 30 30 31 31 31 31 31 31 31 31
15 16 16 17 18 18 18 18 18 18 18 18 18 18 19 19 20 20 20 21 22 22 23 23 24 24 24 24 25 26 26 27 27 28 29 29 29 30 30 30 30 30 30 31
14 14 14 14 15 15 16 16 16 16 16 16 16 17 18 18 18 19 20 20 21 21 21 22 23 23 23 23 24 24 24 25 26 27 27 28 28 28 28 29 29 29 30 30
Wind_Direction
238 239 238 239 241 243 245 249 253 255 258 261 262 262 261 262 263 267 269 272 275 280 282 280 276 277 276 275 272 279 283 285 290 289 288 283 286 285 287 285 282 279 278 282
239 240 240 240 241 244 246 249 252 253 255 258 260 256 255 258 260 265 270 272 273 274 279 280 276 275 274 273 274 274 277 282 287 287 287 287 287 287 287 287 283 280 279 281
240 241 242 241 241 243 246 249 251 252 253 256 256 253 252 256 260 263 266 266 269 269 271 274 272 273 270 270 270 272 275 278 283 285 286 286 287 288 289 286 283 278 277 281
239 241 242 243 242 243 246 249 250 251 252 253 254 254 252 255 259 262 263 263 262 261 263 265 268 270 269 269 270 272 275 278 281 284 286 286 288 289 288 285 283 281 280 279
239 240 241 241 241 243 245 247 248 249 249 251 252 252 251 252 254 259 262 261 260 258 258 260 262 265 268 269 269 270 274 276 280 281 282 283 285 287 288 286 284 284 282 280
239 240 241 241 241 242 244 247 247 247 248 250 250 251 251 252 254 257 258 259 258 258 257 259 260 261 264 266 267 268 270 271 274 278 280 281 284 286 289 287 284 283 283 281
238 240 241 241 242 242 244 245 247 248 249 250 251 252 251 252 255 256 255 257 254 254 257 260 260 261 263 263 265 265 266 268 272 276 278 280 283 286 288 288 286 285 285 285
237 240 242 242 243 244 245 246 246 247 248 250 251 252 253 254 255 255 256 255 251 252 258 260 260 261 263 263 263 264 265 268 273 276 278 281 284 285 286 286 286 285 286 287
239 241 243 243 243 245 246 246 246 246 247 248 250 252 254 254 254 253 253 252 252 253 254 255 257 259 263 262 262 264 266 268 272 273 277 279 280 282 283 284 285 285 287 288
239 240 241 242 244 246 246 246 245 245 245 246 248 250 252 253 252 250 251 252 253 255 257 256 256 259 261 261 262 265 266 268 271 273 276 276 276 279 281 283 284 286 286 287
240 240 241 242 244 245 246 246 245 244 244 244 245 247 250 251 252 251 251 252 254 256 256 257 257 259 260 261 263 267 269 271 271 271 274 274 275 277 279 283 287 288 288 288
241 241 242 242 244 245 245 246 246 245 243 244 246 247 247 248 250 251 251 252 253 254 256 257 257 258 259 261 262 264 268 270 271 270 273 274 275 278 281 284 287 288 288 288
240 240 242 243 245 246 246 246 246 246 244 244 244 246 247 248 247 248 250 252 254 253 254 256 257 258 260 261 262 264 266 269 270 270 272 275 277 278 281 283 285 287 289 288
242 242 242 244 246 247 248 248 247 246 245 244 244 243 245 245 244 245 248 250 253 254 255 257 257 258 260 261 261 262 265 267 271 273 272 274 278 280 282 283 285 286 288 289
242 243 243 244 246 247 248 248 247 247 246 247 245 244 244 243 242 244 246 249 251 253 255 256 257 258 259 261 264 264 265 268 270 273 272 274 277 279 281 283 284 285 288 289
242 243 245 246 246 248 249 248 247 246 246 246 245 242 241 241 244 245 246 248 251 252 253 254 256 258 260 262 264 265 266 268 271 272 273 274 275 277 280 282 284 286 287 288
242 241 243 244 245 247 248 248 247 246 245 244 244 242 242 242 244 246 246 248 250 252 253 254 256 257 258 261 264 266 267 268 270 272 273 274 276 277 279 281 284 286 287 287
243 243 245 245 245 246 247 248 247 244 242 240 239 239 240 242 246 247 248 249 250 251 253 255 257 259 258 259 262 264 266 268 270 272 272 273 275 277 279 281 283 284 286 287
246 247 248 248 248 249 250 248 245 243 240 238 239 240 241 243 245 247 249 252 252 253 255 257 258 260 261 262 263 266 267 269 272 274 273 273 275 276 277 279 282 284 285 286
248 247 246 246 246 246 247 247 246 245 243 241 242 243 244 244 246 247 249 251 253 253 254 256 259 263 265 266 267 268 270 271 271 273 274 274 274 275 277 279 281 284 285 287
247 246 245 244 242 242 242 243 243 244 244 244 245 245 245 244 245 247 250 252 253 254 256 259 262 265 267 267 266 268 270 270 271 273 274 275 276 277 279 280 283 285 286 288
242 242 242 241 239 239 240 239 239 239 241 242 243 244 246 246 246 246 250 252 253 255 258 261 265 267 267 266 266 267 269 269 270 271 273 276 277 278 280 282 283 283 284 287
243 242 241 241 238 238 236 237 237 238 241 243 244 246 249 250 250 251 254 255 256 257 258 261 263 265 265 264 265 268 269 270 271 272 274 276 279 280 280 281 282 284 285 287
245 242 238 237 237 236 235 234 234 236 241 244 245 246 248 251 252 252 253 256 258 258 258 260 262 262 264 264 267 270 272 272 273 274 275 277 279 279 280 281 283 285 286 288
240 237 235 232 232 233 234 233 233 237 241 243 244 246 247 249 252 252 253 255 259 260 260 262 263 263 264 266 268 271 273 274 275 275 276 277 278 279 280 282 284 285 287 287
234 233 233 233 232 233 237 237 238 241 243 245 246 247 248 251 253 254 257 257 257 260 260 261 261 262 265 267 270 273 275 276 276 276 276 277 278 280 280 282 284 285 287 288
227 228 227 225 229 234 236 239 241 243 245 248 250 248 250 252 254 256 258 259 257 257 259 262 264 266 268 271 273 275 276 277 278 279 280 280 280 280 281 283 285 285 287 288
Height
5845 5849 5851 5854 5857 5859 5862 5864 5867 5870 5872 5875 5877 5879 5880 5881 5881 5882 5882 5882 5881 5881 5880 5880 5879 5879 5879 5879 5878 5878 5877 5877 5877 5877 5876 5875 5875 5874 5874 5874 5874 5874 5874 5874
5837 5841 5844 5847 5850 5853 5856 5858 5860 5863 5866 5869 5871 5873 5874 5876 5877 5878 5878 5878 5878 5877 5877 5877 5876 5876 5876 5876 5876 5875 5875 5875 5874 5874 5873 5872 5872 5871 5871 5871 5870 5870 5870 5870
5829 5833 5835 5838 5843 5846 5849 5851 5854 5857 5861 5863 5865 5867 5869 5871 5872 5873 5873 5873 5874 5874 5874 5873 5873 5873 5873 5873 5873 5873 5873 5872 5871 5871 5870 5870 5869 5868 5868 5867 5866 5866 5867 5866
5820 5825 5827 5834 5836 5839 5841 5844 5847 5850 5853 5856 5859 5862 5864 5865 5867 5868 5868 5869 5869 5869 5869 5870 5870 5870 5869 5869 5869 5869 5869 5869 5868 5867 5867 5866 5866 5865 5864 5863 5862 5862 5862 5862
5811 5815 5819 5824 5827 5831 5834 5837 5840 5843 5847 5849 5852 5855 5857 5859 5860 5862 5863 5863 5864 5864 5865 5865 5865 5866 5866 5866 5866 5866 5866 5866 5865 5864 5863 5863 5862 5861 5860 5859 5858 5858 5858 5857
5803 5806 5810 5817 5820 5823 5827 5830 5833 5836 5839 5842 5845 5848 5851 5852 5854 5856 5856 5857 5858 5859 5859 5860 5861 5861 5861 5861 5861 5861 5861 5861 5861 5860 5860 5859 5858 5857 5856 5855 5854 5854 5853 5852
5794 5798 5802 5808 5812 5816 5820 5823 5826 5829 5832 5835 5838 5841 5844 5846 5847 5849 5850 5851 5852 5853 5854 5854 5855 5855 5855 5856 5856 5856 5856 5856 5856 5855 5855 5854 5853 5852 5852 5851 5850 5849 5848 5847
5785 5789 5796 5800 5803 5807 5811 5815 5818 5821 5824 5828 5831 5833 5836 5838 5840 5842 5843 5845 5846 5847 5848 5848 5848 5849 5849 5850 5850 5850 5850 5850 5850 5850 5849 5849 5848 5848 5847 5846 5845 5844 5843 5842
5778 5783 5787 5790 5794 5798 5802 5806 5809 5813 5816 5820 5822 5825 5828 5830 5832 5834 5836 5838 5839 5839 5840 5841 5842 5842 5843 5844 5844 5844 5844 5844 5844 5844 5844 5843 5843 5842 5841 5840 5840 5839 5837 5836
5768 5773 5777 5781 5785 5789 5793 5797 5801 5804 5808 5811 5814 5817 5820 5822 5824 5826 5828 5830 5831 5832 5832 5833 5834 5835 5835 5836 5837 5837 5838 5838 5838 5838 5837 5837 5836 5836 5835 5834 5833 5832 5831 5830
5758 5763 5767 5772 5775 5779 5783 5787 5791 5795 5798 5802 5805 5808 5811 5813 5815 5817 5820 5822 5823 5824 5824 5825 5826 5827 5828 5829 5829 5830 5830 5831 5831 5831 5830 5830 5829 5828 5828 5828 5827 5826 5824 5823
5749 5754 5757 5762 5765 5769 5773 5777 5781 5785 5789 5792 5795 5798 5801 5803 5806 5808 5810 5812 5814 5815 5816 5816 5817 5818 5819 5820 5821 5822 5823 5823 5823 5823 5823 5823 5822 5821 5821 5820 5819 5818 5817 5816
5739 5743 5747 5751 5755 5759 5763 5767 5771 5775 5778 5782 5785 5788 5791 5793 5795 5798 5800 5802 5804 5805 5807 5808 5809 5810 5811 5812 5813 5814 5814 5815 5815 5815 5815 5815 5815 5814 5813 5813 5812 5811 5809 5807
5729 5732 5737 5741 5745 5749 5752 5756 5760 5764 5767 5770 5773 5777 5780 5783 5785 5788 5790 5792 5794 5795 5797 5798 5800 5801 5802 5803 5804 5805 5806 5806 5807 5807 5807 5807 5807 5806 5806 5805 5804 5802 5801 5799
5719 5722 5726 5731 5735 5739 5742 5746 5749 5753 5756 5759 5763 5766 5770 5773 5775 5778 5780 5782 5784 5786 5787 5789 5790 5792 5793 5794 5795 5796 5797 5797 5798 5798 5798 5798 5798 5798 5798 5797 5796 5794 5793 5791
5708 5711 5716 5720 5725 5729 5732 5735 5739 5742 5746 5749 5752 5756 5759 5762 5765 5768 5770 5772 5774 5776 5777 5778 5780 5781 5783 5784 5785 5786 5787 5788 5789 5789 5789 5789 5789 5789 5789 5788 5787 5786 5784 5782
5697 5701 5706 5710 5715 5718 5722 5724 5727 5730 5734 5737 5741 5745 5749 5752 5756 5758 5760 5762 5764 5766 5767 5769 5770 5771 5773 5775 5776 5777 5778 5779 5779 5780 5780 5780 5780 5780 5779 5778 5777 5776 5774 5772
5688 5692 5696 5700 5705 5708 5711 5713 5716 5719 5722 5726 5730 5734 5738 5742 5745 5748 5750 5753 5755 5757 5759 5760 5761 5763 5764 5765 5766 5767 5768 5769 5770 5770 5770 5770 5770 5770 5770 5769 5767 5766 5764 5763
5681 5684 5688 5691 5694 5697 5700 5703 5706 5710 5713 5717 5721 5725 5728 5732 5735 5738 5741 5743 5746 5748 5750 5751 5752 5753 5753 5754 5756 5757 5758 5759 5760 5760 5760 5760 5760 5760 5759 5759 5758 5756 5755 5753
5675 5678 5680 5683 5686 5689 5692 5695 5698 5701 5705 5708 5712 5716 5719 5723 5726 5729 5732 5734 5736 5738 5740 5741 5743 5744 5744 5745 5746 5747 5748 5749 5750 5750 5750 5750 5750 5750 5749 5749 5747 5746 5745 5743
5668 5671 5673 5676 5679 5682 5685 5688 5690 5694 5697 5700 5704 5707 5710 5713 5717 5720 5722 5725 5727 5729 5730 5731 5733 5734 5735 5736 5737 5738 5738 5739 5739 5740 5740 5740 5740 5740 5739 5738 5737 5736 5735 5733
5662 5664 5667 5670 5673 5676 5678 5681 5684 5687 5690 5693 5696 5699 5702 5705 5708 5711 5714 5716 5718 5719 5721 5722 5724 5725 5726 5727 5727 5728 5729 5729 5730 5730 5730 5730 5730 5730 5729 5728 5727 5726 5724 5722
5657 5659 5662 5665 5668 5670 5673 5675 5678 5681 5684 5687 5690 5692 5695 5698 5700 5703 5706 5708 5709 5711 5712 5714 5715 5716 5717 5718 5719 5719 5720 5720 5721 5721 5721 5721 5720 5720 5719 5718 5717 5715 5714 5712
5654 5655 5657 5660 5662 5665 5668 5670 5673 5676 5679 5682 5684 5687 5689 5691 5694 5696 5698 5700 5701 5703 5704 5706 5707 5708 5708 5709 5710 5710 5711 5711 5711 5711 5711 5711 5711 5710 5709 5708 5707 5706 5704 5703
5650 5652 5654 5656 5659 5661 5664 5666 5669 5671 5674 5677 5679 5681 5683 5685 5688 5689 5691 5693 5694 5696 5697 5698 5699 5700 5700 5701 5702 5702 5702 5702 5702 5702 5702 5702 5701 5700 5700 5699 5697 5696 5695 5693
5647 5649 5651 5653 5655 5658 5660 5663 5665 5667 5670 5672 5673 5675 5678 5680 5681 5683 5684 5685 5687 5688 5689 5690 5691 5692 5692 5693 5694 5694 5694 5694 5693 5693 5693 5693 5692 5691 5690 5689 5688 5687 5685 5683
5644 5646 5648 5650 5652 5654 5656 5659 5661 5663 5665 5667 5669 5671 5672 5674 5675 5677 5678 5679 5680 5681 5682 5683 5684 5684 5685 5685 5686 5686 5686 5685 5685 5685 5684 5683 5683 5682 5681 5680 5679 5677 5676 5674